Location: ??
(35.5653°N, 139.6194°E)
Time: 01:37:15
(UTC+00:00)

Daily predictions for brighter satellites

Satellite Brightness Start Highest point End
(mag) Time Altitude Azimuth Time Altitude Azimuth Time Altitude Azimuth
SL-24 R/B 4.5 08:23:59 10° S 08:28:20 76° WSW 08:33:06 10° NNW
CZ-2C R/B 3.7 08:26:57 10° SE 08:31:50 37° ENE 08:36:57 10° N
CZ-4B R/B 1.3 08:29:07 10° NNE 08:32:21 59° E 08:35:29 10° S
Cosmos 1346 Rocket 3.9 08:40:06 10° SE 08:43:15 24° E 08:46:25 10° NE
Cosmos 858 Rocket 4.5 08:41:17 10° S 08:46:32 75° ESE 08:51:49 10° NNE
Iridium 4 Rocket 3.9 08:43:15 10° NNE 08:48:08 37° E 08:52:35 10° SSE
Cosmos 1758 Rocket 3.9 08:46:41 10° SSE 08:50:53 45° E 08:55:10 10° NNE
CZ-2C R/B 4.0 08:47:43 10° NE 08:51:47 20° E 08:55:50 10° SE
Cosmos 2195 Rocket 4.5 08:46:01 10° S 08:52:18 75° E 08:58:38 10° N
COSMO-SKYMED 1 2.6 08:47:58 10° N 08:52:19 84° WNW 08:56:39 10° SSW
PSLV R/B 4.3 08:48:37 10° NNE 08:52:39 44° E 08:56:39 10° S
Cosmos-2242 3.9 08:52:32 10° NNE 08:56:12 27° ENE 08:59:51 10° SE
USA 290 4.3 08:55:01 10° NNE 08:55:45 13° NE 08:55:45 13° NE
Hubble Space Telescope 3.1 08:53:58 10° WSW 08:56:53 19° SSW 08:59:49 10° SSE
Cosmos 1340 2.9 08:54:58 10° SSW 08:58:42 71° W 09:02:26 10° N
ERS-2 2.1 08:55:30 10° NNE 08:59:06 62° ESE 09:02:41 10° S
Cosmos 1428 Rocket 4.5 08:55:15 10° S 09:01:29 73° E 09:07:47 10° N
Feng Yun 1-1 Rocket 4.2 08:56:27 10° SSE 09:01:53 84° ENE 09:07:28 10° NNW
NOSS 3-1 (C) 4.2 08:55:25 10° NNW 09:03:11 63° NE 09:11:57 10° SE
USA 276 3.9 09:05:41 10° S 09:07:50 17° SE 09:08:13 17° ESE
Cosmos 1602 Rocket 4.3 09:03:43 10° SSW 09:07:57 56° W 09:12:16 10° N
Cosmos 1328 4.3 09:04:54 10° SSW 09:08:52 62° W 09:12:48 10° N
Cosmos 1455 4.2 09:09:43 10° NNW 09:13:08 31° W 09:16:33 10° SSW
YAOGAN 1 2.7 09:09:12 10° SSE 09:13:20 48° ENE 09:17:30 10° N
Cosmos 372 Rocket 3.9 09:08:15 10° S 09:13:24 69° ESE 09:18:36 10° NNE
CZ-4 R/B 4.4 09:09:32 10° SSE 09:13:39 89° W 09:17:49 10° NNW
SJ 16-02 4.3 09:13:28 10° W 09:15:07 12° WNW 09:16:45 10° NW
Cosmos 1680 Rocket 3.9 09:11:02 10° NNW 09:16:12 65° WSW 09:21:20 10° S
CZ-2D R/B 3.7 09:12:30 10° S 09:16:18 65° W 09:20:08 10° NNW
Cosmos 1833 Rocket 3.0 09:11:50 10° N 09:17:08 41° ENE 09:22:24 10° SE
USA 267 4.4 09:19:48 20° E 09:21:54 23° ESE 09:26:54 10° S
SAR-Lupe-4 3.6 09:18:34 10° N 09:22:09 80° WNW 09:25:42 10° SSW
Helios 1A Rocket 3.2 09:18:52 10° SE 09:22:48 45° ENE 09:26:45 10° N
Okean O Rocket 4.4 09:19:36 10° SSW 09:23:02 22° W 09:26:28 10° NW
Milstar 3 4.3 09:14:52 10° SW 09:23:19 28° SSE 09:27:49 16° ESE
Cosmos 1825 Rocket 3.4 09:19:04 10° S 09:23:25 79° E 09:27:50 10° N
USA 229 DEB 3.9 09:16:25 10° NNW 09:23:46 61° NE 09:31:25 10° SE
USA 229 4.0 09:16:31 10° NNW 09:23:52 60° NE 09:31:30 10° SE
Cosmos 44 Rocket 3.4 09:20:39 10° S 09:25:20 52° ESE 09:27:50 27° NE
Cosmos 2098 Rocket 4.5 09:19:16 10° S 09:26:31 84° W 09:33:57 10° N
Meteor 1-27 4.3 09:23:14 10° N 09:28:36 47° ENE 09:33:55 10° SSE
COSMOS 2406 3.2 09:23:43 10° NNW 09:29:27 62° ENE 09:35:06 10° SSE
Okean-O 2.5 09:27:43 10° SSE 09:32:08 84° ENE 09:36:35 10° N
H-2A R/B 1.9 09:27:31 10° SSE 09:32:30 76° ENE 09:37:37 10° N
Cosmos 1812 Rocket 4.4 09:28:22 10° NNW 09:32:36 51° W 09:36:47 10° SSW
Cosmos 2292 Rocket 3.9 09:27:11 10° S 09:32:44 56° E 09:35:32 21° NNE
X-37B 2.6 09:31:28 10° NW 09:33:18 18° N 09:33:18 18° N
Cosmos 2082 Rocket 2.9 09:28:55 10° N 09:33:56 30° ENE 09:34:03 30° ENE
Cosmos 1943 Rocket 4.1 09:30:33 10° SE 09:31:02 12° SE 09:31:02 12° SE
Cosmos 1689 Rocket 3.3 09:32:49 12° N 09:35:13 40° WNW 09:37:53 10° SSW
SWARM C 4.3 09:33:00 10° S 09:36:18 78° E 09:37:18 42° N
Cosmos 405 3.4 09:32:55 10° NNW 09:36:24 61° W 09:39:51 10° S
SWARM A 4.0 09:33:06 10° S 09:36:25 85° E 09:37:57 30° N
Cosmos 2298 Rocket 4.0 09:33:17 10° S 09:38:31 62° ESE 09:41:36 25° NNE
NOSS 3-1 (A) 4.1 09:31:43 10° NNW 09:39:33 67° ENE 09:48:24 10° SE
Cosmos 1125 Rocket 3.8 09:35:51 10° S 09:40:42 41° ESE 09:41:14 40° E
BREEZE-M DEB (TANK) 4.1 09:41:51 10° S 09:42:20 13° S 09:42:20 13° S
Aureole 3 Rocket 3.9 09:43:03 10° NNW 09:46:22 45° W 09:50:37 10° SSW
Cosmos 1953 Rocket 3.5 09:44:39 10° S 09:49:01 82° W 09:52:22 17° N
CSL-04 Rocket 3.5 09:43:42 10° SSE 09:49:03 69° ENE 09:54:32 10° N
Cosmos 2278 Rocket 3.4 09:49:42 10° SW 09:55:00 41° WNW 10:00:21 10° N
CZ-4 R/B 2.8 09:51:38 10° S 09:55:28 39° W 09:59:15 10° NNW
Cosmos 2266 Rocket 3.8 09:57:44 10° S 10:03:59 72° E 10:09:59 11° N
Cosmos 1809 Rocket 4.3 10:01:26 10° S 10:07:33 86° E 10:13:43 10° N
ARGOS 3.6 10:11:19 10° S 10:16:35 59° W 10:21:54 10° NNW
CZ-3B R/B 3.5 10:24:46 10° NW 10:29:04 85° SW 10:48:36 10° SE
CZ-2C R/B 3.6 10:26:53 10° N 10:32:13 47° WNW 10:37:34 10° SW
Cosmos 2297 3.9 10:28:12 10° SSW 10:33:00 64° SW 10:33:00 64° SW
ATLAS 2A CENTAUR R/B 4.4 10:28:16 10° WSW 10:57:37 43° S 10:59:13 41° SSE
USA 267 3.9 11:07:10 49° WSW 11:07:10 49° WSW 11:11:47 10° SW
Cosmos 2082 Rocket 4.1 11:12:56 10° NW 11:16:00 26° WNW 11:16:00 26° WNW
